Year,Month,Day,Hour,Minute,Value (Times are PST for temperature in C)
2014,02,08,00,00,-4.60
2014,02,08,00,01,-4.60
2014,02,08,00,02,-4.70
2014,02,08,00,03,-4.60
2014,02,08,00,04,-4.60
2014,02,08,00,05,-4.60
2014,02,08,00,06,-4.60
2014,02,08,00,07,-4.60
2014,02,08,00,08,-4.60
2014,02,08,00,09,-4.60
2014,02,08,00,10,-4.60
2014,02,08,00,11,-4.60
2014,02,08,00,12,-4.60
2014,02,08,00,13,-4.60
2014,02,08,00,14,-4.60
2014,02,08,00,15,-4.60
2014,02,08,00,16,-4.70
2014,02,08,00,17,-4.70
2014,02,08,00,18,-4.70
2014,02,08,00,19,-4.70
2014,02,08,00,20,-4.70
2014,02,08,00,21,-4.70
2014,02,08,00,22,-4.70
2014,02,08,00,23,-4.80
2014,02,08,00,24,-4.80
2014,02,08,00,25,-4.80
2014,02,08,00,26,-4.80
2014,02,08,00,27,-4.90
2014,02,08,00,28,-4.90
2014,02,08,00,29,-4.90
2014,02,08,00,30,-5.00
2014,02,08,00,31,-5.00
2014,02,08,00,32,-5.00
2014,02,08,00,33,-5.10
2014,02,08,00,34,-5.10
2014,02,08,00,35,-5.00
2014,02,08,00,36,-5.00
2014,02,08,00,37,-5.10
2014,02,08,00,38,-5.10
2014,02,08,00,39,-5.10
2014,02,08,00,40,-5.10
2014,02,08,00,41,-5.10
2014,02,08,00,42,-5.10
2014,02,08,00,43,-5.10
2014,02,08,00,44,-5.00
2014,02,08,00,45,-5.00
2014,02,08,00,46,-5.00
2014,02,08,00,47,-4.90
2014,02,08,00,48,-4.90
2014,02,08,00,49,-4.90
2014,02,08,00,50,-4.90
2014,02,08,00,51,-4.90
2014,02,08,00,52,-4.90
2014,02,08,00,53,-4.90
2014,02,08,00,54,-4.90
2014,02,08,00,55,-4.90
2014,02,08,00,56,-4.80
2014,02,08,00,57,-4.80
2014,02,08,00,58,-4.70
2014,02,08,00,59,-4.60
2014,02,08,01,00,-4.60
2014,02,08,01,01,-4.60
2014,02,08,01,02,-4.50
2014,02,08,01,03,-4.50
2014,02,08,01,04,-4.40
2014,02,08,01,05,-4.40
2014,02,08,01,06,-4.40
2014,02,08,01,07,-4.40
2014,02,08,01,08,-4.40
2014,02,08,01,09,-4.40
2014,02,08,01,10,-4.40
2014,02,08,01,11,-4.40
2014,02,08,01,12,-4.40
2014,02,08,01,13,-4.40
2014,02,08,01,14,-4.40
2014,02,08,01,15,-4.40
2014,02,08,01,16,-4.40
2014,02,08,01,17,-4.40
2014,02,08,01,18,-4.40
2014,02,08,01,19,-4.40
2014,02,08,01,20,-4.40
2014,02,08,01,21,-4.40
2014,02,08,01,22,-4.40
2014,02,08,01,23,-4.40
2014,02,08,01,24,-4.40
2014,02,08,01,25,-4.40
2014,02,08,01,26,-4.40
2014,02,08,01,27,-4.50
2014,02,08,01,28,-4.40
2014,02,08,01,29,-4.40
2014,02,08,01,30,-4.50
2014,02,08,01,31,-4.50
2014,02,08,01,32,-4.60
2014,02,08,01,33,-4.60
2014,02,08,01,34,-4.60
2014,02,08,01,35,-4.70
2014,02,08,01,36,-4.70
2014,02,08,01,37,-4.70
2014,02,08,01,38,-4.70
2014,02,08,01,39,-4.70
2014,02,08,01,40,-4.70
2014,02,08,01,41,-4.70
2014,02,08,01,42,-4.60
2014,02,08,01,43,-4.60
2014,02,08,01,44,-4.60
2014,02,08,01,45,-4.60
2014,02,08,01,46,-4.50
2014,02,08,01,47,-4.40
2014,02,08,01,48,-4.40
2014,02,08,01,49,-4.50
2014,02,08,01,50,-4.50
2014,02,08,01,51,-4.50
2014,02,08,01,52,-4.50
2014,02,08,01,53,-4.60
2014,02,08,01,54,-4.60
2014,02,08,01,55,-4.60
2014,02,08,01,56,-4.60
2014,02,08,01,57,-4.60
2014,02,08,01,58,-4.60
2014,02,08,01,59,-4.50
2014,02,08,02,00,-4.50
2014,02,08,02,01,-4.50
2014,02,08,02,02,-4.40
2014,02,08,02,03,-4.40
2014,02,08,02,04,-4.40
2014,02,08,02,05,-4.30
2014,02,08,02,06,-4.30
2014,02,08,02,07,-4.30
2014,02,08,02,08,-4.30
2014,02,08,02,09,-4.30
2014,02,08,02,10,-4.40
2014,02,08,02,11,-4.40
2014,02,08,02,12,-4.40
2014,02,08,02,13,-4.40
2014,02,08,02,14,-4.40
2014,02,08,02,15,-4.40
2014,02,08,02,16,-4.40
2014,02,08,02,17,-4.40
2014,02,08,02,18,-4.40
2014,02,08,02,19,-4.40
2014,02,08,02,20,-4.40
2014,02,08,02,21,-4.30
2014,02,08,02,22,-4.30
2014,02,08,02,23,-4.30
2014,02,08,02,24,-4.30
2014,02,08,02,25,-4.30
2014,02,08,02,26,-4.30
2014,02,08,02,27,-4.30
2014,02,08,02,28,-4.20
2014,02,08,02,29,-4.20
2014,02,08,02,30,-4.20
2014,02,08,02,31,-4.20
2014,02,08,02,32,-4.20
2014,02,08,02,33,-4.20
2014,02,08,02,34,-4.20
2014,02,08,02,35,-4.20
2014,02,08,02,36,-4.20
2014,02,08,02,37,-4.30
2014,02,08,02,38,-4.30
2014,02,08,02,39,-4.30
2014,02,08,02,40,-4.30
2014,02,08,02,41,-4.30
2014,02,08,02,42,-4.20
2014,02,08,02,43,-4.30
2014,02,08,02,44,-4.30
2014,02,08,02,45,-4.30
2014,02,08,02,46,-4.40
2014,02,08,02,47,-4.40
2014,02,08,02,48,-4.40
2014,02,08,02,49,-4.40
2014,02,08,02,50,-4.40
2014,02,08,02,51,-4.40
2014,02,08,02,52,-4.40
2014,02,08,02,53,-4.40
2014,02,08,02,54,-4.40
2014,02,08,02,55,-4.40
2014,02,08,02,56,-4.40
2014,02,08,02,57,-4.40
2014,02,08,02,58,-4.40
2014,02,08,02,59,-4.40
2014,02,08,03,00,-4.40
2014,02,08,03,01,-4.40
2014,02,08,03,02,-4.40
2014,02,08,03,03,-4.40
2014,02,08,03,04,-4.40
2014,02,08,03,05,-4.40
2014,02,08,03,06,-4.40
2014,02,08,03,07,-4.40
2014,02,08,03,08,-4.50
2014,02,08,03,09,-4.50
2014,02,08,03,10,-4.60
2014,02,08,03,11,-4.60
2014,02,08,03,12,-4.60
2014,02,08,03,13,-4.70
2014,02,08,03,14,-4.70
2014,02,08,03,15,-4.70
2014,02,08,03,16,-4.70
2014,02,08,03,17,-4.80
2014,02,08,03,18,-4.80
2014,02,08,03,19,-4.80
2014,02,08,03,20,-4.90
2014,02,08,03,21,-4.90
2014,02,08,03,22,-4.90
2014,02,08,03,23,-4.90
2014,02,08,03,24,-4.90
2014,02,08,03,25,-4.90
2014,02,08,03,26,-4.90
2014,02,08,03,27,-5.00
2014,02,08,03,28,-5.00
2014,02,08,03,29,-5.00
2014,02,08,03,30,-5.00
2014,02,08,03,31,-4.90
2014,02,08,03,32,-4.90
2014,02,08,03,33,-4.90
2014,02,08,03,34,-5.00
2014,02,08,03,35,-5.00
2014,02,08,03,36,-5.10
2014,02,08,03,37,-5.20
2014,02,08,03,38,-5.20
2014,02,08,03,39,-5.20
2014,02,08,03,40,-5.20
2014,02,08,03,41,-5.20
2014,02,08,03,42,-5.30
2014,02,08,03,43,-5.30
2014,02,08,03,44,-5.30
2014,02,08,03,45,-5.30
2014,02,08,03,46,-5.30
2014,02,08,03,47,-5.30
2014,02,08,03,48,-5.30
2014,02,08,03,49,-5.20
2014,02,08,03,50,-5.20
2014,02,08,03,51,-5.20
2014,02,08,03,52,-5.20
2014,02,08,03,53,-5.20
2014,02,08,03,54,-5.20
2014,02,08,03,55,-5.20
2014,02,08,03,56,-5.20
2014,02,08,03,57,-5.20
2014,02,08,03,58,-5.20
2014,02,08,03,59,-5.20
2014,02,08,04,00,-5.20
2014,02,08,04,01,-5.20
2014,02,08,04,02,-5.20
2014,02,08,04,03,-5.20
2014,02,08,04,04,-5.20
2014,02,08,04,05,-5.20
2014,02,08,04,06,-5.20
2014,02,08,04,07,-5.10
2014,02,08,04,08,-5.00
2014,02,08,04,09,-4.90
2014,02,08,04,10,-4.90
2014,02,08,04,11,-4.90
2014,02,08,04,12,-4.90
2014,02,08,04,13,-5.00
2014,02,08,04,14,-5.00
2014,02,08,04,15,-5.10
2014,02,08,04,16,-5.10
2014,02,08,04,17,-5.20
2014,02,08,04,18,-5.20
2014,02,08,04,19,-5.30
2014,02,08,04,20,-5.30
2014,02,08,04,21,-5.30
2014,02,08,04,22,-5.20
2014,02,08,04,23,-5.10
2014,02,08,04,24,-5.10
2014,02,08,04,25,-5.10
2014,02,08,04,26,-5.00
2014,02,08,04,27,-4.90
2014,02,08,04,28,-4.90
2014,02,08,04,29,-4.90
2014,02,08,04,30,-4.90
2014,02,08,04,31,-5.00
2014,02,08,04,32,-5.10
2014,02,08,04,33,-5.10
2014,02,08,04,34,-5.20
2014,02,08,04,35,-5.30
2014,02,08,04,36,-5.40
2014,02,08,04,37,-5.50
2014,02,08,04,38,-5.60
2014,02,08,04,39,-5.60
2014,02,08,04,40,-5.70
2014,02,08,04,41,-5.70
2014,02,08,04,42,-5.70
2014,02,08,04,43,-5.70
2014,02,08,04,44,-5.60
2014,02,08,04,45,-5.60
2014,02,08,04,46,-5.50
2014,02,08,04,47,-5.50
2014,02,08,04,48,-5.40
2014,02,08,04,49,-5.30
2014,02,08,04,50,-5.30
2014,02,08,04,51,-5.30
2014,02,08,04,52,-5.20
2014,02,08,04,53,-5.30
2014,02,08,04,54,-5.30
2014,02,08,04,55,-5.30
2014,02,08,04,56,-5.40
2014,02,08,04,57,-5.40
2014,02,08,04,58,-5.40
2014,02,08,04,59,-5.40
2014,02,08,05,00,-5.40
2014,02,08,05,01,-5.40
2014,02,08,05,02,-5.40
2014,02,08,05,03,-5.40
2014,02,08,05,04,-5.40
2014,02,08,05,05,-5.40
2014,02,08,05,06,-5.40
2014,02,08,05,07,-5.40
2014,02,08,05,08,-5.50
2014,02,08,05,09,-5.50
2014,02,08,05,10,-5.50
2014,02,08,05,11,-5.50
2014,02,08,05,12,-5.40
2014,02,08,05,13,-5.40
2014,02,08,05,14,-5.30
2014,02,08,05,15,-5.30
2014,02,08,05,16,-5.30
2014,02,08,05,17,-5.20
2014,02,08,05,18,-5.20
2014,02,08,05,19,-5.20
2014,02,08,05,20,-5.20
2014,02,08,05,21,-5.20
2014,02,08,05,22,-5.30
2014,02,08,05,23,-5.30
2014,02,08,05,24,-5.30
2014,02,08,05,25,-5.40
2014,02,08,05,26,-5.50
2014,02,08,05,27,-5.50
2014,02,08,05,28,-5.60
2014,02,08,05,29,-5.60
2014,02,08,05,30,-5.60
2014,02,08,05,31,-5.60
2014,02,08,05,32,-5.50
2014,02,08,05,33,-5.50
2014,02,08,05,34,-5.50
2014,02,08,05,35,-5.50
2014,02,08,05,36,-5.50
2014,02,08,05,37,-5.50
2014,02,08,05,38,-5.60
2014,02,08,05,39,-5.60
2014,02,08,05,40,-5.60
2014,02,08,05,41,-5.50
2014,02,08,05,42,-5.40
2014,02,08,05,43,-5.40
2014,02,08,05,44,-5.30
2014,02,08,05,45,-5.30
2014,02,08,05,46,-5.30
2014,02,08,05,47,-5.30
2014,02,08,05,48,-5.30
2014,02,08,05,49,-5.20
2014,02,08,05,50,-5.20
2014,02,08,05,51,-5.20
2014,02,08,05,52,-5.20
2014,02,08,05,53,-5.20
2014,02,08,05,54,-5.30
2014,02,08,05,55,-5.30
2014,02,08,05,56,-5.30
2014,02,08,05,57,-5.40
2014,02,08,05,58,-5.40
2014,02,08,05,59,-5.50
2014,02,08,06,00,-5.50
2014,02,08,06,01,-5.60
2014,02,08,06,02,-5.60
2014,02,08,06,03,-5.60
2014,02,08,06,04,-5.70
2014,02,08,06,05,-5.70
2014,02,08,06,06,-5.70
2014,02,08,06,07,-5.70
2014,02,08,06,08,-5.70
2014,02,08,06,09,-5.70
2014,02,08,06,10,-5.70
2014,02,08,06,11,-5.70
2014,02,08,06,12,-5.70
2014,02,08,06,13,-5.70
2014,02,08,06,14,-5.70
2014,02,08,06,15,-5.70
2014,02,08,06,16,-5.70
2014,02,08,06,17,-5.70
2014,02,08,06,18,-5.70
2014,02,08,06,19,-5.70
2014,02,08,06,20,-5.70
2014,02,08,06,21,-5.70
2014,02,08,06,22,-5.80
2014,02,08,06,23,-5.80
2014,02,08,06,24,-5.80
2014,02,08,06,25,-5.80
2014,02,08,06,26,-5.80
2014,02,08,06,27,-5.80
2014,02,08,06,28,-5.80
2014,02,08,06,29,-5.80
2014,02,08,06,30,-5.80
2014,02,08,06,31,-5.70
2014,02,08,06,32,-5.70
2014,02,08,06,33,-5.70
2014,02,08,06,34,-5.70
2014,02,08,06,35,-5.70
2014,02,08,06,36,-5.70
2014,02,08,06,37,-5.70
2014,02,08,06,38,-5.70
2014,02,08,06,39,-5.70
2014,02,08,06,40,-5.70
2014,02,08,06,41,-5.70
2014,02,08,06,42,-5.70
2014,02,08,06,43,-5.70
2014,02,08,06,44,-5.70
2014,02,08,06,45,-5.70
2014,02,08,06,46,-5.70
2014,02,08,06,47,-5.70
2014,02,08,06,48,-5.70
2014,02,08,06,49,-5.70
2014,02,08,06,50,-5.70
2014,02,08,06,51,-5.70
2014,02,08,06,52,-5.70
2014,02,08,06,53,-5.60
2014,02,08,06,54,-5.60
2014,02,08,06,55,-5.60
2014,02,08,06,56,-5.60
2014,02,08,06,57,-5.60
2014,02,08,06,58,-5.50
2014,02,08,06,59,-5.60
2014,02,08,07,00,-5.60
2014,02,08,07,01,-5.60
2014,02,08,07,02,-5.60
2014,02,08,07,03,-5.60
2014,02,08,07,04,-5.60
2014,02,08,07,05,-5.60
2014,02,08,07,06,-5.60
2014,02,08,07,07,-5.60
2014,02,08,07,08,-5.60
2014,02,08,07,09,-5.60
2014,02,08,07,10,-5.60
2014,02,08,07,11,-5.60
2014,02,08,07,12,-5.60
2014,02,08,07,13,-5.60
2014,02,08,07,14,-5.60
2014,02,08,07,15,-5.60
2014,02,08,07,16,-5.60
2014,02,08,07,17,-5.60
2014,02,08,07,18,-5.60
2014,02,08,07,19,-5.60
2014,02,08,07,20,-5.60
2014,02,08,07,21,-5.60
2014,02,08,07,22,-5.60
2014,02,08,07,23,-5.60
2014,02,08,07,24,-5.60
2014,02,08,07,25,-5.60
2014,02,08,07,26,-5.60
2014,02,08,07,27,-5.50
2014,02,08,07,28,-5.50
2014,02,08,07,29,-5.50
2014,02,08,07,30,-5.50
2014,02,08,07,31,-5.50
2014,02,08,07,32,-5.50
2014,02,08,07,33,-5.50
2014,02,08,07,34,-5.50
2014,02,08,07,35,-5.50
2014,02,08,07,36,-5.40
2014,02,08,07,37,-5.40
2014,02,08,07,38,-5.40
2014,02,08,07,39,-5.40
2014,02,08,07,40,-5.40
2014,02,08,07,41,-5.40
2014,02,08,07,42,-5.40
2014,02,08,07,43,-5.40
2014,02,08,07,44,-5.40
2014,02,08,07,45,-5.30
2014,02,08,07,46,-5.30
2014,02,08,07,47,-5.30
2014,02,08,07,48,-5.30
2014,02,08,07,49,-5.30
2014,02,08,07,50,-5.30
2014,02,08,07,51,-5.30
2014,02,08,07,52,-5.20
2014,02,08,07,53,-5.20
2014,02,08,07,54,-5.20
2014,02,08,07,55,-5.20
2014,02,08,07,56,-5.20
2014,02,08,07,57,-5.20
2014,02,08,07,58,-5.20
2014,02,08,07,59,-5.20
2014,02,08,08,00,-5.10
2014,02,08,08,01,-5.10
2014,02,08,08,02,-5.10
2014,02,08,08,03,-5.10
2014,02,08,08,04,-5.10
2014,02,08,08,05,-5.00
2014,02,08,08,06,-5.00
2014,02,08,08,07,-5.00
2014,02,08,08,08,-4.90
2014,02,08,08,09,-4.90
2014,02,08,08,10,-4.90
2014,02,08,08,11,-4.90
2014,02,08,08,12,-4.80
2014,02,08,08,13,-4.80
2014,02,08,08,14,-4.80
2014,02,08,08,15,-4.70
2014,02,08,08,16,-4.70
2014,02,08,08,17,-4.70
2014,02,08,08,18,-4.70
2014,02,08,08,19,-4.60
2014,02,08,08,20,-4.60
2014,02,08,08,21,-4.60
2014,02,08,08,22,-4.50
2014,02,08,08,23,-4.50
2014,02,08,08,24,-4.50
2014,02,08,08,25,-4.40
2014,02,08,08,26,-4.40
2014,02,08,08,27,-4.40
2014,02,08,08,28,-4.40
2014,02,08,08,29,-4.40
2014,02,08,08,30,-4.30
2014,02,08,08,31,-4.30
2014,02,08,08,32,-4.30
2014,02,08,08,33,-4.30
2014,02,08,08,34,-4.30
2014,02,08,08,35,-4.20
2014,02,08,08,36,-4.20
2014,02,08,08,37,-4.20
2014,02,08,08,38,-4.20
2014,02,08,08,39,-4.20
2014,02,08,08,40,-4.10
2014,02,08,08,41,-4.10
2014,02,08,08,42,-4.10
2014,02,08,08,43,-4.00
2014,02,08,08,44,-4.00
2014,02,08,08,45,-3.90
2014,02,08,08,46,-3.90
2014,02,08,08,47,-3.90
2014,02,08,08,48,-3.90
2014,02,08,08,49,-3.90
2014,02,08,08,50,-3.80
2014,02,08,08,51,-3.80
2014,02,08,08,52,-3.80
2014,02,08,08,53,-3.80
2014,02,08,08,54,-3.80
2014,02,08,08,55,-3.70
2014,02,08,08,56,-3.70
2014,02,08,08,57,-3.70
2014,02,08,08,58,-3.60
2014,02,08,08,59,-3.60
2014,02,08,09,00,-3.50
2014,02,08,09,01,-3.50
2014,02,08,09,02,-3.40
2014,02,08,09,03,-3.40
2014,02,08,09,04,-3.40
2014,02,08,09,05,-3.30
2014,02,08,09,06,-3.30
2014,02,08,09,07,-3.30
2014,02,08,09,08,-3.30
2014,02,08,09,09,-3.20
2014,02,08,09,10,-3.20
2014,02,08,09,11,-3.20
2014,02,08,09,12,-3.20
2014,02,08,09,13,-3.10
2014,02,08,09,14,-3.10
2014,02,08,09,15,-3.10
2014,02,08,09,16,-3.00
2014,02,08,09,17,-3.00
2014,02,08,09,18,-2.90
2014,02,08,09,19,-2.80
2014,02,08,09,20,-2.80
2014,02,08,09,21,-2.70
2014,02,08,09,22,-2.70
2014,02,08,09,23,-2.60
2014,02,08,09,24,-2.60
2014,02,08,09,25,-2.50
2014,02,08,09,26,-2.40
2014,02,08,09,27,-2.30
2014,02,08,09,28,-2.30
2014,02,08,09,29,-2.20
2014,02,08,09,30,-2.20
2014,02,08,09,31,-2.10
2014,02,08,09,32,-2.00
2014,02,08,09,33,-2.00
2014,02,08,09,34,-1.90
2014,02,08,09,35,-1.90
2014,02,08,09,36,-1.80
2014,02,08,09,37,-1.70
2014,02,08,09,38,-1.70
2014,02,08,09,39,-1.60
2014,02,08,09,40,-1.50
2014,02,08,09,41,-1.40
2014,02,08,09,42,-1.40
2014,02,08,09,43,-1.30
2014,02,08,09,44,-1.30
2014,02,08,09,45,-1.20
2014,02,08,09,46,-1.10
2014,02,08,09,47,-1.10
2014,02,08,09,48,-1.00
2014,02,08,09,49,-0.90
2014,02,08,09,50,-0.90
2014,02,08,09,51,-0.80
2014,02,08,09,52,-0.80
2014,02,08,09,53,-0.70
2014,02,08,09,54,-0.70
2014,02,08,09,55,-0.70
2014,02,08,09,56,-0.60
2014,02,08,09,57,-0.60
2014,02,08,09,58,-0.50
2014,02,08,09,59,-0.40
2014,02,08,10,00,-0.40
2014,02,08,10,01,-0.30
2014,02,08,10,02,-0.30
2014,02,08,10,03,-0.20
2014,02,08,10,04,-0.20
2014,02,08,10,05,-0.20
2014,02,08,10,06,-0.10
2014,02,08,10,07,0.00
2014,02,08,10,08,0.10
2014,02,08,10,09,0.20
2014,02,08,10,10,0.30
2014,02,08,10,11,0.40
2014,02,08,10,12,0.50
2014,02,08,10,13,0.60
2014,02,08,10,14,0.60
2014,02,08,10,15,0.70
2014,02,08,10,16,0.80
2014,02,08,10,17,0.80
2014,02,08,10,18,0.80
2014,02,08,10,19,0.90
2014,02,08,10,20,0.90
2014,02,08,10,21,1.00
2014,02,08,10,22,1.00
2014,02,08,10,23,1.10
2014,02,08,10,24,1.20
2014,02,08,10,25,1.20
2014,02,08,10,26,1.30
2014,02,08,10,27,1.40
2014,02,08,10,28,1.50
2014,02,08,10,29,1.50
2014,02,08,10,30,1.50
2014,02,08,10,31,1.60
2014,02,08,10,32,1.60
2014,02,08,10,33,1.70
2014,02,08,10,34,1.70
2014,02,08,10,35,1.80
2014,02,08,10,36,1.80
2014,02,08,10,37,1.90
2014,02,08,10,38,1.90
2014,02,08,10,39,1.90
2014,02,08,10,40,1.90
2014,02,08,10,41,1.90
2014,02,08,10,42,1.90
2014,02,08,10,43,1.90
2014,02,08,10,44,1.90
2014,02,08,10,45,1.90
2014,02,08,10,46,1.80
2014,02,08,10,47,1.90
2014,02,08,10,48,1.90
2014,02,08,10,49,1.90
2014,02,08,10,50,1.90
2014,02,08,10,51,1.90
2014,02,08,10,52,2.00
2014,02,08,10,53,2.00
2014,02,08,10,54,2.10
2014,02,08,10,55,2.10
2014,02,08,10,56,2.10
2014,02,08,10,57,2.00
2014,02,08,10,58,2.00
2014,02,08,10,59,2.00
2014,02,08,11,00,2.00
2014,02,08,11,01,2.00
2014,02,08,11,02,2.10
2014,02,08,11,03,2.20
2014,02,08,11,04,2.30
2014,02,08,11,05,2.30
2014,02,08,11,06,2.20
2014,02,08,11,07,2.20
2014,02,08,11,08,2.20
2014,02,08,11,09,2.20
2014,02,08,11,10,2.20
2014,02,08,11,11,2.30
2014,02,08,11,12,2.30
2014,02,08,11,13,2.30
2014,02,08,11,14,2.30
2014,02,08,11,15,2.30
2014,02,08,11,16,2.30
2014,02,08,11,17,2.30
2014,02,08,11,18,2.30
2014,02,08,11,19,2.30
2014,02,08,11,20,2.30
2014,02,08,11,21,2.40
2014,02,08,11,22,2.40
2014,02,08,11,23,2.50
2014,02,08,11,24,2.50
2014,02,08,11,25,2.60
2014,02,08,11,26,2.70
2014,02,08,11,27,2.70
2014,02,08,11,28,2.80
2014,02,08,11,29,2.90
2014,02,08,11,30,3.00
2014,02,08,11,31,3.00
2014,02,08,11,32,3.10
2014,02,08,11,33,3.20
2014,02,08,11,34,3.20
2014,02,08,11,35,3.20
2014,02,08,11,36,3.20
2014,02,08,11,37,3.20
2014,02,08,11,38,3.20
2014,02,08,11,39,3.20
2014,02,08,11,40,3.10
2014,02,08,11,41,3.10
2014,02,08,11,42,3.00
2014,02,08,11,43,3.00
2014,02,08,11,44,3.00
2014,02,08,11,45,3.10
2014,02,08,11,46,3.10
2014,02,08,11,47,3.00
2014,02,08,11,48,3.00
2014,02,08,11,49,2.90
2014,02,08,11,50,2.80
2014,02,08,11,51,2.80
2014,02,08,11,52,2.80
2014,02,08,11,53,2.90
2014,02,08,11,54,2.90
2014,02,08,11,55,3.00
2014,02,08,11,56,3.00
2014,02,08,11,57,3.10
2014,02,08,11,58,3.10
2014,02,08,11,59,3.10
2014,02,08,12,00,3.10
2014,02,08,12,01,3.10
2014,02,08,12,02,3.10
2014,02,08,12,03,3.10
2014,02,08,12,04,3.20
2014,02,08,12,05,3.20
2014,02,08,12,06,3.30
2014,02,08,12,07,3.30
2014,02,08,12,08,3.30
2014,02,08,12,09,3.20
2014,02,08,12,10,3.10
2014,02,08,12,11,3.10
2014,02,08,12,12,3.10
2014,02,08,12,13,3.10
2014,02,08,12,14,3.10
2014,02,08,12,15,3.10
2014,02,08,12,16,3.10
2014,02,08,12,17,3.10
2014,02,08,12,18,3.10
2014,02,08,12,19,3.10
2014,02,08,12,20,3.00
2014,02,08,12,21,2.90
2014,02,08,12,22,2.80
2014,02,08,12,23,2.80
2014,02,08,12,24,2.80
2014,02,08,12,25,2.70
2014,02,08,12,26,2.70
2014,02,08,12,27,2.70
2014,02,08,12,28,2.60
2014,02,08,12,29,2.50
2014,02,08,12,30,2.40
2014,02,08,12,31,2.30
2014,02,08,12,32,2.30
2014,02,08,12,33,2.30
2014,02,08,12,34,2.30
2014,02,08,12,35,2.30
2014,02,08,12,36,2.30
2014,02,08,12,37,2.30
2014,02,08,12,38,2.30
2014,02,08,12,39,2.30
2014,02,08,12,40,2.30
2014,02,08,12,41,2.30
2014,02,08,12,42,2.40
2014,02,08,12,43,2.40
2014,02,08,12,44,2.40
2014,02,08,12,45,2.40
2014,02,08,12,46,2.40
2014,02,08,12,47,2.50
2014,02,08,12,48,2.50
2014,02,08,12,49,2.50
2014,02,08,12,50,2.50
2014,02,08,12,51,2.50
2014,02,08,12,52,2.50
2014,02,08,12,53,2.50
2014,02,08,12,54,2.50
2014,02,08,12,55,2.60
2014,02,08,12,56,2.60
2014,02,08,12,57,2.70
2014,02,08,12,58,2.70
2014,02,08,12,59,2.80
2014,02,08,13,00,2.80
2014,02,08,13,01,2.80
2014,02,08,13,02,2.80
2014,02,08,13,03,2.80
2014,02,08,13,04,2.90
2014,02,08,13,05,2.90
2014,02,08,13,06,3.00
2014,02,08,13,07,3.10
2014,02,08,13,08,3.20
2014,02,08,13,09,3.20
2014,02,08,13,10,3.30
2014,02,08,13,11,3.20
2014,02,08,13,12,3.10
2014,02,08,13,13,3.10
2014,02,08,13,14,3.10
2014,02,08,13,15,3.10
2014,02,08,13,16,3.10
2014,02,08,13,17,3.10
2014,02,08,13,18,3.10
2014,02,08,13,19,3.10
2014,02,08,13,20,3.10
2014,02,08,13,21,3.10
2014,02,08,13,22,3.10
2014,02,08,13,23,3.10
2014,02,08,13,24,3.00
2014,02,08,13,25,3.00
2014,02,08,13,26,2.90
2014,02,08,13,27,2.80
2014,02,08,13,28,2.80
2014,02,08,13,29,2.90
2014,02,08,13,30,3.00
2014,02,08,13,31,3.10
2014,02,08,13,32,3.10
2014,02,08,13,33,3.20
2014,02,08,13,34,3.20
2014,02,08,13,35,3.30
2014,02,08,13,36,3.40
2014,02,08,13,37,3.40
2014,02,08,13,38,3.50
2014,02,08,13,39,3.50
2014,02,08,13,40,3.60
2014,02,08,13,41,3.60
2014,02,08,13,42,3.60
2014,02,08,13,43,3.70
2014,02,08,13,44,3.70
2014,02,08,13,45,3.80
2014,02,08,13,46,3.90
2014,02,08,13,47,4.10
2014,02,08,13,48,4.10
2014,02,08,13,49,4.10
2014,02,08,13,50,4.10
2014,02,08,13,51,4.10
2014,02,08,13,52,4.10
2014,02,08,13,53,4.20
2014,02,08,13,54,4.20
2014,02,08,13,55,4.20
2014,02,08,13,56,4.10
2014,02,08,13,57,4.00
2014,02,08,13,58,3.90
2014,02,08,13,59,3.70
2014,02,08,14,00,3.50
2014,02,08,14,01,3.20
2014,02,08,14,02,3.10
2014,02,08,14,03,3.00
2014,02,08,14,04,3.10
2014,02,08,14,05,3.10
2014,02,08,14,06,3.10
2014,02,08,14,07,3.10
2014,02,08,14,08,3.10
2014,02,08,14,09,3.10
2014,02,08,14,10,3.20
2014,02,08,14,11,3.20
2014,02,08,14,12,3.30
2014,02,08,14,13,3.20
2014,02,08,14,14,3.10
2014,02,08,14,15,2.90
2014,02,08,14,16,2.80
2014,02,08,14,17,2.70
2014,02,08,14,18,2.60
2014,02,08,14,19,2.60
2014,02,08,14,20,2.50
2014,02,08,14,21,2.50
2014,02,08,14,22,2.40
2014,02,08,14,23,2.40
2014,02,08,14,24,2.50
2014,02,08,14,25,2.60
2014,02,08,14,26,2.70
2014,02,08,14,27,2.80
2014,02,08,14,28,2.80
2014,02,08,14,29,2.90
2014,02,08,14,30,3.00
2014,02,08,14,31,3.10
2014,02,08,14,32,3.20
2014,02,08,14,33,3.20
2014,02,08,14,34,3.30
2014,02,08,14,35,3.30
2014,02,08,14,36,3.40
2014,02,08,14,37,3.40
2014,02,08,14,38,3.40
2014,02,08,14,39,3.40
2014,02,08,14,40,3.50
2014,02,08,14,41,3.60
2014,02,08,14,42,3.60
2014,02,08,14,43,3.60
2014,02,08,14,44,3.60
2014,02,08,14,45,3.60
2014,02,08,14,46,3.60
2014,02,08,14,47,3.60
2014,02,08,14,48,3.60
2014,02,08,14,49,3.60
2014,02,08,14,50,3.60
2014,02,08,14,51,3.70
2014,02,08,14,52,3.70
2014,02,08,14,53,3.70
2014,02,08,14,54,3.70
2014,02,08,14,55,3.80
2014,02,08,14,56,3.80
2014,02,08,14,57,3.80
2014,02,08,14,58,3.80
2014,02,08,14,59,3.80
2014,02,08,15,00,3.80
2014,02,08,15,01,3.80
2014,02,08,15,02,3.80
2014,02,08,15,03,3.80
2014,02,08,15,04,3.90
2014,02,08,15,05,3.90
2014,02,08,15,06,3.90
2014,02,08,15,07,3.80
2014,02,08,15,08,3.90
2014,02,08,15,09,3.90
2014,02,08,15,10,3.90
2014,02,08,15,11,3.90
2014,02,08,15,12,3.90
2014,02,08,15,13,3.90
2014,02,08,15,14,3.90
2014,02,08,15,15,3.90
2014,02,08,15,16,3.90
2014,02,08,15,17,3.90
2014,02,08,15,18,3.90
2014,02,08,15,19,3.90
2014,02,08,15,20,3.90
2014,02,08,15,21,3.80
2014,02,08,15,22,3.70
2014,02,08,15,23,3.60
2014,02,08,15,24,3.50
2014,02,08,15,25,3.50
2014,02,08,15,26,3.50
2014,02,08,15,27,3.50
2014,02,08,15,28,3.50
2014,02,08,15,29,3.60
2014,02,08,15,30,3.60
2014,02,08,15,31,3.70
2014,02,08,15,32,3.70
2014,02,08,15,33,3.70
2014,02,08,15,34,3.70
2014,02,08,15,35,3.70
2014,02,08,15,36,3.70
2014,02,08,15,37,3.80
2014,02,08,15,38,3.80
2014,02,08,15,39,3.80
2014,02,08,15,40,3.80
2014,02,08,15,41,3.80
2014,02,08,15,42,3.90
2014,02,08,15,43,3.90
2014,02,08,15,44,3.90
2014,02,08,15,45,3.90
2014,02,08,15,46,3.80
2014,02,08,15,47,3.70
2014,02,08,15,48,3.50
2014,02,08,15,49,3.30
2014,02,08,15,50,3.20
2014,02,08,15,51,3.10
2014,02,08,15,52,3.10
2014,02,08,15,53,3.00
2014,02,08,15,54,2.80
2014,02,08,15,55,2.80
2014,02,08,15,56,2.70
2014,02,08,15,57,2.70
2014,02,08,15,58,2.70
2014,02,08,15,59,2.70
2014,02,08,16,00,2.70
2014,02,08,16,01,2.70
2014,02,08,16,02,2.70
2014,02,08,16,03,2.70
2014,02,08,16,04,2.80
2014,02,08,16,05,2.80
2014,02,08,16,06,2.80
2014,02,08,16,07,2.90
2014,02,08,16,08,2.90
2014,02,08,16,09,2.90
2014,02,08,16,10,2.80
2014,02,08,16,11,2.80
2014,02,08,16,12,2.70
2014,02,08,16,13,2.70
2014,02,08,16,14,2.70
2014,02,08,16,15,2.70
2014,02,08,16,16,2.80
2014,02,08,16,17,2.80
2014,02,08,16,18,2.80
2014,02,08,16,19,2.80
2014,02,08,16,20,2.90
2014,02,08,16,21,2.90
2014,02,08,16,22,3.00
2014,02,08,16,23,3.00
2014,02,08,16,24,3.00
2014,02,08,16,25,3.00
2014,02,08,16,26,3.00
2014,02,08,16,27,2.90
2014,02,08,16,28,2.80
2014,02,08,16,29,2.70
2014,02,08,16,30,2.70
2014,02,08,16,31,2.60
2014,02,08,16,32,2.60
2014,02,08,16,33,2.60
2014,02,08,16,34,2.50
2014,02,08,16,35,2.50
2014,02,08,16,36,2.50
2014,02,08,16,37,2.50
2014,02,08,16,38,2.50
2014,02,08,16,39,2.50
2014,02,08,16,40,2.50
2014,02,08,16,41,2.60
2014,02,08,16,42,2.60
2014,02,08,16,43,2.60
2014,02,08,16,44,2.50
2014,02,08,16,45,2.50
2014,02,08,16,46,2.40
2014,02,08,16,47,2.30
2014,02,08,16,48,2.20
2014,02,08,16,49,2.20
2014,02,08,16,50,2.10
2014,02,08,16,51,2.10
2014,02,08,16,52,2.10
2014,02,08,16,53,2.00
2014,02,08,16,54,1.80
2014,02,08,16,55,1.70
2014,02,08,16,56,1.60
2014,02,08,16,57,1.50
2014,02,08,16,58,1.40
2014,02,08,16,59,1.30
2014,02,08,17,00,1.20
2014,02,08,17,01,1.20
2014,02,08,17,02,1.10
2014,02,08,17,03,1.00
2014,02,08,17,04,1.00
2014,02,08,17,05,0.90
2014,02,08,17,06,0.80
2014,02,08,17,07,0.70
2014,02,08,17,08,0.70
2014,02,08,17,09,0.60
2014,02,08,17,10,0.50
2014,02,08,17,11,0.50
2014,02,08,17,12,0.40
2014,02,08,17,13,0.40
2014,02,08,17,14,0.30
2014,02,08,17,15,0.30
2014,02,08,17,16,0.30
2014,02,08,17,17,0.30
2014,02,08,17,18,0.20
2014,02,08,17,19,0.20
2014,02,08,17,20,0.20
2014,02,08,17,21,0.10
2014,02,08,17,22,0.10
2014,02,08,17,23,0.00
2014,02,08,17,24,0.00
2014,02,08,17,25,-0.10
2014,02,08,17,26,-0.10
2014,02,08,17,27,-0.20
2014,02,08,17,28,-0.30
2014,02,08,17,29,-0.30
2014,02,08,17,30,-0.40
2014,02,08,17,31,-0.50
2014,02,08,17,32,-0.50
2014,02,08,17,33,-0.60
2014,02,08,17,34,-0.60
2014,02,08,17,35,-0.70
2014,02,08,17,36,-0.70
2014,02,08,17,37,-0.70
2014,02,08,17,38,-0.80